Date,TemperatureHighF,TemperatureAvgF,TemperatureLowF,DewpointHighF,DewpointAvgF,DewpointLowF,HumidityHigh,HumidityAvg,HumidityLow,PressureMaxIn,PressureMinIn,WindSpeedMaxMPH,WindSpeedAvgMPH,GustSpeedMaxMPH,PrecipitationSumIn
2013-1-1,39.2,35.4,30.7,33.4,31.4,28.6,93,85,77,29.95,29.81,0,0,0,0.00
2013-1-2,44.1,38.4,30.0,37.6,33.2,28.5,97,82,70,30.40,29.88,0,0,0,0.00
2013-1-3,46.6,41.4,36.5,42.4,36.9,31.2,89,84,76,30.41,30.30,0,0,0,0.00
2013-1-4,51.1,47.5,44.1,49.0,44.5,40.0,99,89,74,30.42,30.17,0,0,0,0.00
2013-1-5,49.6,46.3,40.8,48.3,44.2,39.5,98,93,89,30.36,30.16,0,0,0,0.00
2013-1-6,45.9,43.4,41.4,44.7,42.5,40.8,99,97,90,30.34,30.11,0,0,0,0.00
2013-1-7,44.6,41.0,37.4,44.3,39.5,35.1,99,94,90,30.37,30.19,0,0,0,0.00
2013-1-8,39.0,37.3,35.1,38.8,36.2,33.0,99,96,90,30.33,30.17,0,0,0,0.00
2013-1-9,45.3,42.2,39.0,44.5,41.6,38.8,99,97,92,30.19,29.88,0,0,0,0.00
2013-1-10,43.2,40.3,36.3,39.9,36.9,33.1,96,88,77,29.88,29.69,0,0,0,0.00
2013-1-11,36.3,32.4,28.8,34.3,26.3,22.2,93,78,67,30.03,29.71,0,0,0,0.00
2013-1-12,41.9,28.8,24.1,31.3,21.8,18.6,85,75,61,30.08,30.00,0,0,0,0.00
2013-1-13,31.3,28.3,26.8,24.0,21.2,19.4,82,74,62,30.10,30.05,0,0,0,0.00
2013-1-14,31.1,26.3,17.2,27.8,22.0,14.3,93,84,74,30.07,29.90,0,0,0,0.00
2013-1-15,30.9,25.2,16.7,26.3,22.5,14.3,94,90,81,29.94,29.76,0,0,0,0.00
2013-1-16,32.4,29.3,27.3,29.3,26.7,25.3,94,90,85,29.79,29.73,0,0,0,0.00
2013-1-17,32.2,29.3,27.7,26.4,24.3,21.7,87,82,72,29.93,29.75,0,0,0,0.00
2013-1-18,28.0,25.5,23.2,23.5,20.1,18.3,86,80,74,29.92,29.71,0,0,0,0.00
2013-1-19,33.3,24.5,21.0,25.4,18.2,15.3,85,77,65,29.72,29.56,0,0,0,0.00
2013-1-20,29.8,26.9,23.5,25.4,21.3,17.4,84,79,73,29.59,29.47,0,0,0,0.00
2013-1-21,29.7,26.7,23.0,25.4,23.2,18.6,88,86,82,29.61,29.46,0,0,0,0.00
2013-1-22,26.8,22.6,20.1,18.6,16.4,14.3,83,77,69,29.80,29.61,0,0,0,0.00
2013-1-23,26.2,24.0,21.4,19.9,17.6,15.5,80,76,71,29.83,29.78,0,0,0,0.00
2013-1-24,28.2,25.5,23.2,23.4,20.5,17.4,85,81,78,30.01,29.80,0,0,0,0.00
2013-1-25,27.1,20.0,4.6,18.8,13.8,-0.1,80,76,68,30.16,30.00,0,0,0,0.00
2013-1-26,19.4,12.3,3.4,14.0,7.8,-1.1,85,81,77,30.12,30.00,0,0,0,0.00
2013-1-27,28.2,24.2,18.1,27.2,20.3,13.1,96,85,79,30.02,29.75,0,0,0,0.00
2013-1-28,34.9,29.6,23.9,30.7,26.8,20.4,97,89,80,30.09,29.77,0,0,0,0.00
2013-1-29,43.2,39.2,30.6,38.4,35.9,28.5,93,88,82,30.07,29.86,0,0,0,0.00
2013-1-30,54.3,47.7,39.9,50.3,44.6,37.8,95,89,80,29.90,29.66,0,0,0,0.00
2013-1-31,60.1,46.1,39.9,40.3,35.9,32.7,84,68,46,29.97,29.76,0,0,0,0.00
2013-2-1,50.4,42.1,36.3,39.8,36.5,31.3,98,81,66,29.83,29.27,0,0,0,0.00
2013-2-2,41.9,38.3,32.7,39.5,34.6,23.9,99,87,68,29.75,29.18,0,0,0,0.00
2013-2-3,53.1,35.7,27.5,34.3,26.1,22.2,87,68,41,29.96,29.75,0,0,0,0.00
2013-2-4,42.3,38.7,34.3,39.3,35.2,31.1,95,87,78,29.80,29.70,0,0,0,0.00
2013-2-5,47.7,41.0,37.0,39.6,35.4,30.0,95,81,66,29.81,29.47,0,0,0,0.00
2013-2-6,54.0,36.1,27.0,36.6,26.9,22.7,87,71,42,29.62,29.48,0,0,0,0.00
2013-2-7,41.0,32.5,27.0,33.5,28.0,23.4,92,84,70,29.82,29.61,0,0,0,0.00
2013-2-8,46.6,31.9,25.9,36.3,27.3,23.3,91,83,61,29.95,29.81,0,0,0,0.00
2013-2-9,50.2,32.8,28.0,35.1,25.5,22.4,91,75,46,30.06,29.94,0,0,0,0.00
2013-2-10,47.7,32.5,24.6,31.6,22.8,17.5,87,68,45,30.06,29.91,0,0,0,0.00
2013-2-11,31.3,29.2,24.8,24.1,20.7,18.2,80,70,62,29.91,29.78,0,0,0,0.00
2013-2-12,32.7,31.0,29.8,29.6,25.7,20.8,93,81,67,29.95,29.76,0,0,0,0.00
2013-2-13,35.8,31.8,29.8,30.8,28.0,26.2,93,86,77,30.32,29.94,0,0,0,0.00
2013-2-14,36.9,32.5,30.2,29.4,27.6,26.5,87,82,72,30.32,30.11,0,0,0,0.00
2013-2-15,39.0,34.1,32.0,33.2,30.3,28.3,92,86,79,30.17,30.05,0,0,0,0.00
2013-2-16,39.0,34.7,32.0,34.9,32.3,30.7,97,91,82,30.26,30.17,0,0,0,0.00
2013-2-17,38.8,34.9,32.9,35.6,33.2,32.1,98,93,86,30.27,30.22,0,0,0,0.00
2013-2-18,42.8,35.4,32.5,35.8,31.7,29.0,96,86,69,30.23,30.09,0,0,0,0.00
2013-2-19,36.3,33.7,31.5,34.2,30.8,28.0,96,89,78,30.09,29.81,0,0,0,0.00
2013-2-20,37.0,31.8,27.5,30.1,27.3,23.9,91,84,66,30.14,29.96,0,0,0,0.00
2013-2-21,45.7,28.3,23.2,34.8,22.2,17.6,93,78,59,30.16,30.08,0,0,0,0.00
2013-2-22,33.8,26.5,21.9,23.3,19.8,15.3,88,76,59,30.09,29.88,0,0,0,0.00
2013-2-23,35.6,29.5,22.6,31.0,26.0,19.1,94,87,82,29.89,29.75,0,0,0,0.00
2013-2-24,46.9,35.1,29.1,42.0,32.7,27.6,99,91,71,29.97,29.76,0,0,0,0.00
2013-2-25,45.0,38.3,33.8,42.8,37.6,33.6,99,97,91,30.28,29.93,0,0,0,0.00
2013-2-26,46.6,38.8,35.1,44.0,35.7,32.6,99,89,73,30.38,30.26,0,0,0,0.00
2013-2-27,46.9,37.1,29.8,38.1,33.2,28.3,96,86,70,30.43,30.37,0,0,0,0.00
2013-2-28,43.7,37.1,32.2,38.0,33.9,31.2,99,88,73,30.42,30.20,0,0,0,0.00
2013-3-1,41.5,37.0,34.9,35.0,31.8,28.9,90,81,70,30.24,30.13,0,0,0,0.00
2013-3-2,57.9,36.4,26.6,38.7,28.9,23.9,94,75,48,30.27,30.12,0,0,0,0.00
2013-3-3,43.7,32.8,23.5,33.7,27.5,21.6,94,81,62,30.24,30.09,0,0,0,0.00
2013-3-4,60.6,37.8,25.5,39.6,28.5,22.7,95,72,43,30.30,30.20,0,0,0,0.00
2013-3-5,59.4,40.3,24.1,38.1,29.3,20.8,90,67,43,30.20,29.89,0,0,0,0.00
2013-3-6,65.1,41.6,25.9,40.9,30.8,23.1,92,68,40,29.90,29.65,0,0,0,0.00
2013-3-7,54.5,43.5,33.3,46.0,39.8,30.7,99,87,71,29.67,29.59,0,0,0,0.00
2013-3-8,51.3,45.5,40.5,47.8,43.5,38.6,99,93,84,29.68,29.63,0,0,0,0.00
2013-3-9,43.7,40.9,38.5,42.5,40.3,38.2,99,98,94,29.68,29.59,0,0,0,0.00
2013-3-10,57.4,46.0,40.5,53.0,44.1,40.2,99,94,71,29.60,29.42,0,0,0,0.00
2013-3-11,45.0,31.7,27.5,44.7,26.8,21.3,99,82,71,29.70,29.43,0,0,0,0.00
2013-3-12,33.8,29.4,27.1,26.9,24.0,21.1,89,80,70,29.70,29.53,0,0,0,0.00
2013-3-13,34.3,28.1,25.0,24.7,22.1,18.2,92,78,60,29.74,29.52,0,0,0,0.00
2013-3-14,48.7,28.8,15.8,28.1,18.1,11.7,85,66,40,29.83,29.73,0,0,0,0.00
2013-3-15,49.8,28.6,20.1,28.6,19.3,15.8,86,69,39,30.09,29.81,0,0,0,0.00
2013-3-16,56.3,31.4,15.4,27.6,17.4,11.8,87,59,30,30.16,30.03,0,0,0,0.00
2013-3-17,51.1,34.4,23.9,26.1,19.1,14.1,70,55,37,30.04,29.70,0,0,0,0.00
2013-3-18,47.1,35.3,29.5,33.3,27.3,20.5,99,74,50,29.71,29.25,0,0,0,0.00
2013-3-19,41.5,34.6,29.5,34.9,32.0,28.5,99,90,74,29.60,29.24,0,0,0,0.00
2013-3-20,65.5,41.5,26.6,44.7,34.4,26.1,99,78,46,29.79,29.59,0,0,0,0.00
2013-3-21,39.6,34.8,28.6,37.7,29.8,22.2,99,83,64,30.09,29.78,0,0,0,0.00
2013-3-22,43.9,32.6,29.3,29.6,24.3,20.4,85,71,55,30.14,30.07,0,0,0,0.00
2013-3-23,45.7,30.1,19.2,21.3,11.4,0.9,69,47,21,30.24,30.13,0,0,0,0.00
2013-3-24,43.7,27.3,16.2,12.6,6.2,0.3,59,42,22,30.24,30.09,0,0,0,0.00
2013-3-25,36.7,29.4,23.5,13.6,11.1,7.7,60,47,31,30.11,29.94,0,0,0,0.00
2013-3-26,41.0,31.2,24.4,14.5,11.7,5.3,63,45,24,29.95,29.86,0,0,0,0.00
2013-3-27,36.0,30.5,27.3,27.1,21.0,12.6,85,68,51,29.94,29.88,0,0,0,0.00
2013-3-28,42.4,34.6,28.8,28.8,26.8,22.6,89,73,57,29.92,29.78,0,0,0,0.00
2013-3-29,50.9,37.8,32.2,40.7,30.1,23.9,96,75,53,29.78,29.66,0,0,0,0.00
2013-3-30,56.1,39.2,30.6,35.4,28.1,23.6,85,66,42,29.99,29.68,0,0,0,0.00
2013-3-31,45.5,37.0,33.1,29.7,26.9,23.7,83,68,47,30.04,29.96,0,0,0,0.00
2013-4-1,51.8,35.7,26.6,30.7,25.1,20.1,83,67,44,30.14,30.02,0,0,0,0.00
2013-4-2,44.6,36.3,27.5,30.0,25.1,21.6,86,65,46,30.21,30.11,0,0,0,0.00
2013-4-3,50.4,36.8,32.4,30.1,25.9,24.2,76,65,43,30.23,30.19,0,0,0,0.00
2013-4-4,46.8,38.0,32.7,32.0,29.3,26.5,82,71,55,30.21,30.10,0,0,0,0.00
2013-4-5,43.3,38.0,35.1,32.7,31.2,30.1,86,77,65,30.12,29.99,0,0,0,0.00
2013-4-6,45.9,39.0,35.8,34.7,32.5,30.7,88,78,62,30.38,30.11,0,0,0,0.00
2013-4-7,52.2,39.6,27.9,35.9,29.6,21.9,88,69,44,30.40,30.30,0,0,0,0.00
2013-4-8,62.8,40.8,21.6,34.2,24.5,18.6,89,57,29,30.30,29.97,0,0,0,0.00
2013-4-9,60.6,46.0,38.3,44.3,33.1,25.3,91,61,52,29.99,29.91,0,0,0,0.00
2013-4-10,64.6,48.4,40.6,56.5,43.0,38.9,95,83,62,30.09,29.90,0,0,0,0.00
2013-4-11,61.2,48.9,37.0,52.6,45.0,35.2,96,87,66,30.09,29.87,0,0,0,0.00
2013-4-12,68.9,53.0,42.1,55.0,49.0,40.4,99,87,58,30.05,29.79,0,0,0,0.00
2013-4-13,67.5,52.0,41.2,52.7,43.3,39.6,97,74,50,30.51,30.04,0,0,0,0.00
2013-4-14,73.4,53.5,35.6,52.0,43.4,35.4,99,72,44,30.62,30.50,0,0,0,0.00
2013-4-15,81.7,59.3,39.2,54.3,43.1,37.0,97,60,34,30.57,30.38,0,0,0,0.00
2013-4-16,75.6,60.8,50.0,52.3,44.0,37.5,88,55,40,30.43,30.34,0,0,0,0.00
2013-4-17,88.2,64.6,50.4,63.4,54.1,48.3,99,73,40,30.48,30.38,0,0,0,0.00
2013-4-18,91.2,66.6,47.1,62.6,54.7,46.3,99,70,38,30.39,30.17,0,0,0,0.00
2013-4-19,68.2,59.6,50.4,58.9,48.1,38.6,99,68,44,30.50,30.25,0,0,0,0.00
2013-4-20,57.4,51.5,45.5,48.5,45.1,40.5,98,80,64,30.57,30.49,0,0,0,0.00
2013-4-21,77.0,57.3,39.6,57.0,46.8,39.2,99,71,48,30.52,30.19,0,0,0,0.00
2013-4-22,82.4,60.7,42.6,62.4,50.7,39.6,95,72,48,30.27,30.16,0,0,0,0.00
2013-4-23,80.4,61.5,48.6,57.7,50.0,42.0,99,70,40,30.47,30.26,0,0,0,0.00
2013-4-24,87.6,62.3,43.3,58.4,48.0,40.9,92,63,35,30.58,30.45,0,0,0,0.00
2013-4-25,92.7,66.0,45.9,62.8,52.3,44.4,97,66,36,30.54,30.35,0,0,0,0.00
2013-4-26,93.0,68.8,48.0,65.2,53.8,47.3,99,64,30,30.36,29.81,0,0,0,0.00
2013-4-27,79.5,60.6,50.7,63.0,54.6,48.0,99,82,55,29.97,29.82,0,0,0,0.00
2013-4-28,65.7,50.9,45.9,51.9,45.9,41.7,99,84,58,30.29,29.94,0,0,0,0.00
2013-4-29,61.2,54.5,49.5,54.5,50.3,45.5,95,86,75,30.40,30.22,0,0,0,0.00
2013-4-30,76.5,58.5,48.6,58.4,51.4,46.7,99,79,52,30.41,30.30,0,0,0,0.00
2013-5-1,65.5,55.3,49.5,53.8,49.8,47.4,94,82,64,30.50,30.34,0,0,0,0.00
2013-5-2,77.0,58.9,49.5,64.3,54.4,49.0,99,86,62,30.40,30.24,0,0,0,0.00
2013-5-3,62.6,55.7,51.8,54.6,51.6,46.7,99,87,69,30.26,30.18,0,0,0,0.00
2013-5-4,79.2,58.0,47.8,63.4,52.4,46.9,99,83,55,30.36,30.24,0,0,0,0.00
2013-5-5,84.6,60.1,48.9,67.2,54.8,48.7,99,84,51,30.49,30.35,0,0,0,0.00
2013-5-6,74.5,60.4,48.0,64.1,56.9,47.8,99,89,69,30.46,30.25,0,0,0,0.00
2013-5-7,81.5,66.5,55.9,71.2,62.0,55.7,99,86,65,30.27,30.16,0,0,0,0.00
2013-5-8,91.2,67.2,56.8,73.7,62.8,56.6,99,88,53,30.25,30.14,0,0,0,0.00
2013-5-9,96.8,68.6,52.0,75.3,60.9,51.7,99,79,46,30.23,30.12,0,0,0,0.00
2013-5-10,63.1,59.4,53.8,61.6,59.0,53.5,99,98,89,30.25,30.08,0,0,0,0.00
2013-5-11,64.8,56.3,51.8,59.8,55.0,51.5,99,95,77,30.25,30.17,0,0,0,0.00
2013-5-12,79.0,58.6,47.8,61.0,51.5,44.3,99,79,49,30.28,30.10,0,0,0,0.00
2013-5-13,80.4,55.9,41.4,54.4,46.4,40.2,99,73,39,30.31,30.21,0,0,0,0.00
2013-5-14,74.5,60.9,49.5,61.1,50.5,46.1,99,72,42,30.23,30.06,0,0,0,0.00
2013-5-15,83.8,64.7,46.6,60.3,53.4,46.0,99,69,44,30.07,29.85,0,0,0,0.00
2013-5-16,77.4,67.8,56.5,59.6,55.8,52.6,88,67,48,29.87,29.71,0,0,0,0.00
2013-5-17,79.9,69.2,60.6,63.1,58.3,54.4,86,69,50,29.81,29.73,0,0,0,0.00
2013-5-18,70.2,63.1,54.3,61.3,56.8,51.2,99,81,59,30.10,29.80,0,0,0,0.00
2013-5-19,77.7,66.8,48.6,61.6,56.8,48.3,99,73,48,30.09,29.86,0,0,0,0.00
2013-5-20,72.9,62.9,52.3,59.1,51.3,47.4,97,68,48,30.14,29.99,0,0,0,0.00
2013-5-21,80.1,62.9,47.1,55.5,50.0,44.2,91,66,41,30.17,30.03,0,0,0,0.00
2013-5-22,77.0,57.0,48.0,56.6,49.9,44.4,92,79,49,30.08,29.90,0,0,0,0.00
2013-5-23,60.1,52.6,45.0,45.4,41.6,36.3,95,68,44,30.10,29.96,0,0,0,0.00
2013-5-24,68.0,53.1,41.2,51.3,44.0,39.3,93,73,52,30.09,29.96,0,0,0,0.00
2013-5-25,63.0,52.3,46.0,51.5,47.7,43.0,99,85,63,30.09,30.02,0,0,0,0.00
2013-5-26,55.8,48.6,45.1,49.3,46.6,44.9,99,93,74,30.04,29.91,0,0,0,0.00
2013-5-27,62.1,53.1,45.3,58.7,51.6,45.1,99,95,77,30.04,29.87,0,0,0,0.00
2013-5-28,72.3,57.2,43.7,57.9,52.0,43.4,99,84,58,30.04,29.80,0,0,0,0.00
2013-5-29,73.6,60.4,49.1,61.8,55.3,48.8,99,85,57,29.90,29.76,0,0,0,0.00
2013-5-30,61.3,54.6,52.0,55.9,53.5,51.7,99,96,77,29.93,29.68,0,0,0,0.00
2013-5-31,63.1,56.1,48.7,58.7,54.0,48.5,99,93,70,29.92,29.66,0,0,0,0.00
2013-6-1,59.5,53.9,47.3,59.3,53.6,47.0,99,99,99,29.98,29.88,0,0,0,0.00
2013-6-2,59.7,55.7,52.2,59.5,54.7,51.0,99,96,83,30.28,29.91,0,0,0,0.00
2013-6-3,53.8,51.5,49.5,53.3,51.2,49.2,99,99,96,30.35,30.27,0,0,0,0.00
2013-6-4,70.7,58.4,51.1,61.7,55.0,50.8,99,89,68,30.34,30.28,0,0,0,0.00
2013-6-5,75.9,61.9,48.2,56.4,52.4,47.6,99,74,45,30.37,30.32,0,0,0,0.00
2013-6-6,74.7,63.7,53.2,63.1,58.0,52.7,99,83,63,30.42,30.35,0,0,0,0.00
2013-6-7,75.9,65.2,52.9,65.5,60.5,52.6,99,86,67,30.40,30.29,0,0,0,0.00
2013-6-8,83.7,70.4,54.9,68.9,62.8,54.6,99,79,59,30.33,30.14,0,0,0,0.00
2013-6-9,82.9,67.5,58.1,68.0,62.3,57.8,99,86,56,30.14,29.95,0,0,0,0.00
2013-6-10,65.5,61.7,57.9,65.0,60.4,56.5,99,96,79,30.12,29.94,0,0,0,0.00
2013-6-11,79.9,65.7,51.8,62.6,53.8,47.7,99,69,42,30.32,30.11,0,0,0,0.00
2013-6-12,82.8,67.5,50.7,62.8,54.0,47.4,99,66,39,30.39,30.31,0,0,0,0.00
2013-6-13,82.8,70.2,54.0,65.2,59.6,52.7,96,71,51,30.39,30.15,0,0,0,0.00
2013-6-14,75.0,66.8,59.5,63.3,57.6,50.3,99,74,48,30.39,30.15,0,0,0,0.00
2013-6-15,83.5,68.4,52.2,65.8,59.3,51.8,99,75,49,30.32,30.16,0,0,0,0.00
2013-6-16,81.3,71.3,59.4,63.7,60.5,56.6,99,71,50,30.30,30.20,0,0,0,0.00
2013-6-17,86.2,74.5,57.7,71.4,64.7,57.2,99,73,55,30.31,30.19,0,0,0,0.00
2013-6-18,93.2,81.5,64.6,81.5,73.6,64.3,99,79,57,30.27,30.19,0,0,0,0.00
2013-6-19,93.4,82.7,68.4,80.6,76.0,68.1,99,81,62,30.28,30.13,0,0,0,0.00
2013-6-20,92.5,83.1,71.2,80.5,76.0,67.8,99,80,65,30.15,29.98,0,0,0,0.00
2013-6-21,86.7,75.4,65.8,72.4,66.6,63.9,99,75,55,30.27,30.06,0,0,0,0.00
2013-6-22,90.7,75.8,64.8,72.5,65.8,62.2,99,73,51,30.29,30.17,0,0,0,0.00
2013-6-23,92.5,75.0,64.0,72.4,64.3,56.7,99,71,51,30.22,30.13,0,0,0,0.00
2013-6-24,66.4,61.4,56.8,62.7,58.2,53.8,99,90,69,30.33,30.21,0,0,0,0.00
2013-6-25,59.4,56.9,54.1,59.1,56.6,53.7,99,99,94,30.39,30.23,0,0,0,0.00
2013-6-26,63.0,56.4,52.9,57.2,52.8,49.9,99,88,69,30.52,30.36,0,0,0,0.00
2013-6-27,69.1,60.3,51.8,57.2,52.1,48.2,97,76,55,30.52,30.42,0,0,0,0.00
2013-6-28,73.9,62.6,47.1,59.4,53.6,46.9,99,75,48,30.44,30.32,0,0,0,0.00
2013-6-29,75.6,62.9,50.7,60.6,56.3,50.3,99,81,54,30.35,30.23,0,0,0,0.00
2013-6-30,73.4,62.8,53.4,59.1,51.3,47.6,99,68,50,30.45,30.32,0,0,0,0.00
2013-7-1,82.9,68.6,52.3,62.8,57.2,51.0,96,69,49,30.39,30.26,0,0,0,0.00
2013-7-2,84.2,69.9,55.4,65.8,60.5,54.5,98,75,51,30.29,30.16,0,0,0,0.00
2013-7-3,81.5,67.0,58.6,72.5,64.5,58.4,99,92,67,30.23,30.11,0,0,0,0.00
2013-7-4,82.4,72.3,61.2,73.9,66.5,60.9,99,83,61,30.46,30.22,0,0,0,0.00
2013-7-5,81.0,70.7,62.8,70.4,66.1,62.5,99,86,62,30.60,30.45,0,0,0,0.00
2013-7-6,79.7,70.5,60.6,72.5,65.7,60.4,99,86,64,30.62,30.55,0,0,0,0.00
2013-7-7,87.6,72.4,58.8,71.2,60.7,55.7,99,70,45,30.65,30.57,0,0,0,0.00
2013-7-8,87.4,73.1,58.3,68.3,61.7,58.0,99,70,50,30.65,30.54,0,0,0,0.00
2013-7-9,88.2,74.3,58.6,70.9,62.9,58.4,99,70,49,30.57,30.33,0,0,0,0.00
2013-7-10,89.6,73.8,60.4,70.1,62.6,57.4,99,71,46,30.34,30.16,0,0,0,0.00
2013-7-11,71.6,64.7,56.5,59.7,56.4,53.3,90,75,61,30.31,30.22,0,0,0,0.00
2013-7-12,76.3,67.0,57.0,60.9,57.0,54.0,92,72,53,30.37,30.30,0,0,0,0.00
2013-7-13,84.6,69.5,57.9,65.8,57.5,53.3,95,68,45,30.37,30.32,0,0,0,0.00
2013-7-14,83.3,70.0,55.9,65.9,59.4,53.8,94,71,50,30.40,30.32,0,0,0,0.00
2013-7-15,76.8,68.2,59.0,61.6,56.4,52.5,90,68,49,30.46,30.34,0,0,0,0.00
2013-7-16,84.6,69.8,52.9,64.2,57.4,52.1,99,68,43,30.50,30.40,0,0,0,0.00
2013-7-17,84.9,71.9,56.7,67.1,59.9,56.4,99,69,43,30.46,30.38,0,0,0,0.00
2013-7-18,86.2,73.9,58.6,68.2,61.9,57.8,98,69,45,30.46,30.36,0,0,0,0.00
2013-7-19,92.5,75.5,60.3,70.6,63.1,59.7,99,69,46,30.41,30.27,0,0,0,0.00
2013-7-20,81.5,71.4,60.3,69.6,60.5,56.7,95,71,46,30.39,30.32,0,0,0,0.00
2013-7-21,83.5,72.3,57.4,64.2,59.7,56.2,98,68,45,30.45,30.35,0,0,0,0.00
2013-7-22,88.9,74.2,57.2,67.9,60.7,55.0,99,67,36,30.38,30.20,0,0,0,0.00
2013-7-23,91.8,76.0,59.4,68.7,61.2,54.5,99,64,32,30.22,30.14,0,0,0,0.00
2013-7-24,87.6,75.1,56.8,67.8,60.5,55.1,95,64,37,30.26,30.13,0,0,0,0.00
2013-7-25,82.4,74.4,66.6,75.3,68.7,66.3,99,84,62,30.27,30.21,0,0,0,0.00
2013-7-26,89.4,75.9,62.6,72.6,68.2,62.3,99,80,51,30.27,30.14,0,0,0,0.00
2013-7-27,93.4,80.9,65.8,74.6,69.9,65.6,99,72,45,30.17,30.03,0,0,0,0.00
2013-7-28,97.5,84.3,68.9,77.8,70.6,66.1,95,66,39,30.15,30.03,0,0,0,0.00
2013-7-29,89.1,78.4,66.0,75.5,71.3,65.6,99,80,61,30.19,29.97,0,0,0,0.00
2013-7-30,80.6,71.7,63.5,72.3,65.5,61.1,99,82,57,30.32,30.13,0,0,0,0.00
2013-7-31,82.4,73.1,63.7,70.1,65.8,62.4,99,79,59,30.37,30.27,0,0,0,0.00
2013-8-1,87.8,74.1,61.5,73.0,65.5,61.3,99,77,54,30.39,30.26,0,0,0,0.00
2013-8-2,91.2,78.0,61.7,72.4,67.1,61.4,99,72,45,30.31,30.17,0,0,0,0.00
2013-8-3,95.4,81.3,63.9,77.2,70.6,63.6,99,73,44,30.29,30.18,0,0,0,0.00
2013-8-4,85.6,74.5,64.2,78.1,70.7,64.0,99,89,65,30.43,30.25,0,0,0,0.00
2013-8-5,80.4,70.1,62.2,73.6,67.6,62.0,99,93,69,30.42,30.24,0,0,0,0.00
2013-8-6,90.9,77.7,63.3,77.1,70.6,63.1,99,81,55,30.27,30.09,0,0,0,0.00
2013-8-7,85.8,75.9,66.0,75.1,71.0,65.8,99,86,64,30.26,30.06,0,0,0,0.00
2013-8-8,87.3,78.3,67.1,78.8,72.3,66.8,99,83,63,30.27,30.03,0,0,0,0.00
2013-8-9,77.4,67.3,59.4,69.5,64.3,59.1,99,91,70,30.37,30.26,0,0,0,0.00
2013-8-10,79.0,67.3,56.3,68.1,62.2,56.0,99,86,57,30.38,30.25,0,0,0,0.00
2013-8-11,76.6,65.7,56.5,68.8,60.6,55.1,99,85,62,30.33,30.25,0,0,0,0.00
2013-8-12,79.9,67.4,51.6,65.6,59.1,51.4,99,78,48,30.35,30.13,0,0,0,0.00
2013-8-13,75.4,66.9,58.6,65.8,58.6,52.9,99,77,50,30.35,30.13,0,0,0,0.00
2013-8-14,75.9,64.9,55.2,59.6,54.0,48.7,94,70,47,30.48,30.34,0,0,0,0.00
2013-8-15,73.9,63.1,49.6,57.9,52.1,48.5,99,71,43,30.54,30.43,0,0,0,0.00
2013-8-16,77.7,65.9,50.9,58.0,54.1,50.4,99,69,43,30.48,30.32,0,0,0,0.00
2013-8-17,82.8,69.1,53.1,63.2,58.7,52.7,99,73,47,30.34,30.20,0,0,0,0.00
2013-8-18,87.4,73.9,58.8,72.7,64.7,58.6,99,75,50,30.26,30.15,0,0,0,0.00
2013-8-19,78.1,68.5,64.0,70.1,66.2,63.0,99,93,73,30.32,30.20,0,0,0,0.00
2013-8-20,72.0,62.7,55.0,65.1,60.5,54.8,99,93,66,30.60,30.32,0,0,0,0.00
2013-8-21,76.1,63.0,51.4,64.6,56.3,51.2,99,81,50,30.60,30.46,0,0,0,0.00
2013-8-22,74.5,63.0,51.1,61.3,56.6,50.8,99,82,53,30.47,30.35,0,0,0,0.00
2013-8-23,75.9,64.7,52.0,62.6,57.8,51.7,99,80,54,30.38,30.30,0,0,0,0.00
2013-8-24,77.4,68.1,56.8,65.1,59.2,54.8,99,75,51,30.33,30.14,0,0,0,0.00
2013-8-25,66.9,61.9,59.0,60.3,57.7,55.3,99,87,68,30.17,30.12,0,0,0,0.00
2013-8-26,69.3,62.7,58.1,63.7,59.7,55.5,99,90,74,30.25,30.15,0,0,0,0.00
2013-8-27,68.7,61.9,57.0,63.1,58.1,54.4,99,88,67,30.25,30.20,0,0,0,0.00
2013-8-28,73.8,64.2,55.9,67.4,60.9,55.7,99,90,70,30.35,30.19,0,0,0,0.00
2013-8-29,77.5,63.7,51.1,65.8,59.0,50.8,99,86,56,30.43,30.34,0,0,0,0.00
2013-8-30,57.0,52.8,52.3,56.6,52.6,51.9,99,99,99,30.42,30.31,0,0,0,0.00
2013-8-31,52.3,52.3,52.3,52.1,52.1,52.1,99,99,99,30.34,30.26,0,0,0,0.00
2013-9-1,52.3,52.3,52.3,52.1,52.1,52.1,99,99,99,30.48,30.32,0,0,0,0.00
2013-9-2,52.3,52.3,52.3,52.1,52.1,52.1,99,99,99,30.47,30.35,0,0,0,0.00
2013-9-3,52.3,52.3,52.3,52.1,52.1,52.1,99,99,99,30.55,30.33,0,0,0,0.00
2013-9-4,52.3,52.3,52.3,52.1,52.1,52.1,99,99,99,30.55,30.42,0,0,0,0.00
2013-9-5,52.3,52.3,52.3,52.1,52.1,52.1,99,99,99,30.44,30.27,0,0,0,0.00
2013-9-6,52.3,52.3,52.3,52.1,52.1,52.1,99,99,99,30.28,30.19,0,0,0,0.00
2013-9-7,52.3,52.3,52.3,52.1,52.1,52.1,99,99,99,30.36,30.25,0,0,0,0.00
2013-9-8,52.3,52.3,52.3,52.1,52.1,52.1,99,99,99,30.37,30.21,0,0,0,0.00
2013-9-9,52.3,52.3,52.3,52.1,52.1,52.1,99,99,99,30.34,30.09,0,0,0,0.00
2013-9-10,52.3,52.3,52.3,52.1,52.1,52.1,99,99,99,30.33,30.16,0,0,0,0.00
2013-9-11,52.3,52.3,52.3,52.1,52.1,52.1,99,99,99,30.24,30.15,0,0,0,0.00
2013-9-12,32.0,32.0,32.0,52.2,52.2,52.2,0,0,100,30.25,30.12,0,0,0,0.00
2013-9-13,32.0,32.0,32.0,52.2,52.2,52.2,0,0,100,30.32,30.24,0,0,0,0.00
2013-9-14,32.0,32.0,32.0,52.2,52.2,52.2,0,0,100,30.27,30.13,0,0,0,0.00
2013-9-15,32.0,32.0,32.0,52.2,52.2,52.2,0,0,100,30.16,29.97,0,0,0,0.00
2013-9-16,32.0,32.0,32.0,52.2,52.2,52.2,0,0,100,29.98,29.76,0,0,0,0.00
2013-9-17,32.0,32.0,32.0,52.2,52.2,52.2,0,0,100,29.94,29.75,0,0,0,0.00
2013-9-18,32.0,32.0,32.0,52.2,52.2,52.2,0,0,100,29.92,29.69,0,0,0,0.00
2013-9-19,32.0,32.0,32.0,52.2,52.2,52.2,0,0,100,30.19,29.86,0,0,0,0.00
2013-9-20,32.0,32.0,32.0,52.2,52.2,52.2,0,0,100,30.30,30.16,0,0,0,0.00
2013-9-21,32.0,32.0,32.0,52.2,52.2,52.2,0,0,100,30.58,30.29,0,0,0,0.00
2013-9-22,32.0,32.0,32.0,52.2,52.2,52.2,0,0,100,30.60,30.45,0,0,0,0.00
2013-9-23,32.0,32.0,32.0,52.2,52.2,52.2,0,0,100,30.45,30.30,0,0,0,0.00
2013-9-24,32.0,32.0,32.0,52.2,52.2,52.2,0,0,100,30.31,30.17,0,0,0,0.00
2013-9-25,32.0,32.0,32.0,52.2,52.2,52.2,0,0,100,30.22,30.06,0,0,0,0.00
2013-9-26,32.0,32.0,32.0,52.2,52.2,52.2,0,0,100,30.32,30.01,0,0,0,0.00
2013-9-27,32.0,32.0,32.0,52.2,52.2,52.2,0,0,100,30.37,30.27,0,0,0,0.00
2013-9-28,32.0,32.0,32.0,52.2,52.2,52.2,0,0,100,30.31,30.21,0,0,0,0.00
2013-9-29,32.0,32.0,32.0,52.2,52.2,52.2,0,0,100,30.28,30.18,0,0,0,0.00
2013-9-30,32.0,32.0,32.0,52.2,52.2,52.2,0,0,100,30.22,30.13,0,0,0,0.00
2013-10-1,32.0,32.0,32.0,52.2,52.2,52.2,0,0,100,30.35,30.18,0,0,0,0.00
2013-10-2,32.0,32.0,32.0,52.2,52.2,52.2,0,0,100,30.62,30.34,0,0,0,0.00
2013-10-3,32.0,32.0,32.0,52.2,52.2,52.2,0,0,100,30.67,30.58,0,0,0,0.00
2013-10-4,32.0,32.0,32.0,52.2,52.2,52.2,0,0,100,30.63,30.48,0,0,0,0.00
2013-10-5,32.0,32.0,32.0,52.2,52.2,52.2,0,0,100,30.48,30.30,0,0,0,0.00
2013-10-6,32.0,32.0,32.0,52.2,52.2,52.2,0,0,100,30.56,30.37,0,0,0,0.00
2013-10-7,32.0,32.0,32.0,52.2,52.2,52.2,0,0,100,30.63,30.55,0,0,0,0.00
2013-10-8,32.0,32.0,32.0,52.2,52.2,52.2,0,0,100,30.58,30.44,0,0,0,0.00
2013-10-9,32.0,32.0,32.0,52.2,52.2,52.2,0,0,100,30.46,30.15,0,0,0,0.00
2013-10-10,32.0,32.0,32.0,52.2,52.2,52.2,0,0,100,30.15,29.91,0,0,0,0.00
2013-10-11,32.0,32.0,32.0,52.2,52.2,52.2,0,0,100,30.35,30.04,0,0,0,0.00
2013-10-12,32.0,32.0,32.0,52.2,52.2,52.2,0,0,100,30.37,30.22,0,0,0,0.00
2013-10-13,32.0,32.0,32.0,52.2,52.2,52.2,0,0,100,30.43,30.28,0,0,0,0.00
2013-10-14,32.0,32.0,32.0,52.2,52.2,52.2,0,0,100,30.45,30.31,0,0,0,0.00
2013-10-15,32.0,32.0,32.0,52.2,52.2,52.2,0,0,100,30.31,29.98,0,0,0,0.00
2013-10-16,32.0,32.0,32.0,52.2,52.2,52.2,0,0,100,30.25,29.97,0,0,0,0.00
2013-10-17,32.0,32.0,32.0,52.2,52.2,52.2,0,0,100,30.25,30.09,0,0,0,0.00
2013-10-18,32.0,32.0,32.0,52.2,52.2,52.2,0,0,100,30.42,30.10,0,0,0,0.00
2013-10-19,32.0,32.0,32.0,52.2,52.2,52.2,0,0,100,30.41,30.25,0,0,0,0.00
2013-10-20,32.0,32.0,32.0,52.2,52.2,52.2,0,0,100,30.32,30.25,0,0,0,0.00
2013-10-21,32.0,32.0,32.0,52.2,52.2,52.2,0,0,100,30.31,30.25,0,0,0,0.00
2013-10-22,32.0,32.0,32.0,52.2,52.2,52.2,0,0,100,30.32,30.17,0,0,0,0.00
2013-10-23,32.0,32.0,32.0,52.2,52.2,52.2,0,0,100,30.22,30.10,0,0,0,0.00
2013-10-24,32.0,32.0,32.0,52.2,52.2,52.2,0,0,100,30.40,30.21,0,0,0,0.00
2013-10-25,32.0,32.0,32.0,52.2,52.2,52.2,0,0,100,30.40,30.30,0,0,0,0.00
2013-10-26,32.0,32.0,32.0,52.2,52.2,52.2,0,0,100,30.32,30.22,0,0,0,0.00
2013-10-27,32.0,32.0,32.0,52.2,52.2,52.2,0,0,100,30.24,30.00,0,0,0,0.00
2013-10-28,32.0,32.0,32.0,52.2,52.2,52.2,0,0,100,30.14,29.87,0,0,0,0.00
2013-10-29,32.0,32.0,32.0,52.2,52.2,52.2,0,0,100,30.32,30.04,0,0,0,0.00
2013-10-30,32.0,32.0,32.0,52.2,52.2,52.2,0,0,100,30.62,30.32,0,0,0,0.00
2013-10-31,32.0,32.0,32.0,52.2,52.2,52.2,0,0,100,30.64,30.43,0,0,0,0.00
2013-11-1,32.0,32.0,32.0,52.2,52.2,52.2,0,0,100,30.45,30.22,0,0,0,0.00
2013-11-2,32.0,32.0,32.0,52.2,52.2,52.2,0,0,100,30.23,29.92,0,0,0,0.00
2013-11-3,32.0,32.0,32.0,52.2,52.2,52.2,0,0,100,30.03,29.81,0,0,0,0.00
2013-11-4,32.0,32.0,32.0,52.2,52.2,52.2,0,0,100,30.02,29.55,0,0,0,0.00
2013-11-5,32.0,32.0,32.0,52.2,52.2,52.2,0,0,100,29.81,29.55,0,0,0,0.00
2013-11-6,32.0,32.0,32.0,52.2,52.2,52.2,0,0,100,29.99,29.65,0,0,0,0.00
2013-11-7,32.0,32.0,32.0,52.2,52.2,52.2,0,0,100,30.12,29.94,0,0,0,0.00
2013-11-8,56.7,34.4,32.0,56.4,52.3,52.2,99,11,99,30.11,29.86,0,0,0,0.00
2013-11-9,53.4,49.9,41.2,52.8,48.1,40.7,99,94,80,30.02,29.85,0,0,0,0.00
2013-11-10,52.2,44.1,38.5,47.8,43.0,38.2,99,96,80,30.12,29.74,0,0,0,0.00
2013-11-11,47.7,43.6,38.8,45.7,42.0,38.3,99,94,79,30.60,30.12,0,0,0,0.00
2013-11-12,46.0,39.9,33.8,40.9,37.2,33.6,99,91,74,30.59,30.37,0,0,0,0.00
2013-11-13,45.0,36.7,30.9,44.7,36.4,30.7,99,99,98,30.54,30.37,0,0,0,0.00
2013-11-14,38.5,35.6,29.7,38.2,35.3,29.4,99,99,99,30.49,30.24,0,0,0,0.00
2013-11-15,42.3,40.1,36.9,41.8,39.8,36.6,99,99,96,30.53,30.27,0,0,0,0.00
2013-11-16,47.3,41.6,34.9,45.2,41.0,34.6,99,98,90,30.56,30.45,0,0,0,0.00
2013-11-17,44.8,37.4,34.3,44.5,37.2,34.1,99,99,99,30.45,30.25,3,0,7,2.46
2013-11-18,46.0,42.2,37.2,45.1,41.9,37.0,99,99,98,30.25,29.97,5,3,13,0.00
2013-11-19,48.7,45.6,32.0,47.4,44.7,42.2,99,95,91,30.08,29.71,9,4,18,0.00
2013-11-20,46.8,43.8,40.8,45.2,43.2,39.0,99,98,92,29.74,29.61,8,4,14,0.08
2013-11-21,46.4,42.4,39.7,44.9,40.4,36.7,99,92,87,29.74,29.62,6,3,11,0.00
2013-11-22,50.5,45.8,38.1,46.8,44.0,37.9,99,94,80,29.94,29.67,8,3,16,0.00
2013-11-23,49.3,43.0,36.3,46.6,41.4,36.1,99,94,81,30.03,29.93,5,2,12,0.00
2013-11-24,45.0,39.2,30.9,44.4,36.7,24.2,99,91,73,30.21,30.00,11,6,21,0.04
2013-11-25,36.1,30.1,25.9,29.7,25.3,22.2,89,82,73,30.39,30.20,10,5,23,0.01
2013-11-26,33.8,29.1,25.9,29.1,25.7,22.3,95,87,75,30.57,30.38,9,4,17,0.00
2013-11-27,34.0,25.9,19.8,25.5,22.1,17.8,95,86,68,30.62,30.52,6,2,11,0.00
2013-11-28,39.2,34.1,28.9,35.7,31.2,24.3,94,89,80,30.52,30.33,10,4,17,0.00
2013-11-29,40.6,36.9,34.7,37.3,34.6,32.3,99,91,84,30.36,29.89,11,5,22,0.06
2013-11-30,41.7,36.9,33.4,36.5,34.6,31.5,99,91,81,30.34,29.88,10,6,21,0.01
2013-12-1,43.5,38.1,33.6,37.8,35.3,32.6,99,90,77,30.44,30.34,8,4,16,0.00
2013-12-2,40.8,33.9,25.9,37.9,32.4,25.5,99,94,81,30.69,30.43,5,1,8,0.00
2013-12-3,30.6,26.1,21.7,30.3,25.9,21.5,99,99,99,30.68,30.45,4,1,6,0.00
2013-12-4,35.8,28.6,24.4,32.8,27.9,24.2,99,97,89,30.47,30.28,8,2,16,0.00
2013-12-5,40.3,35.9,31.5,37.1,32.1,28.6,96,86,75,30.37,29.71,20,7,34,1.55
2013-12-6,37.8,32.9,27.5,35.7,25.6,20.9,99,75,60,30.01,29.71,33,16,108,17.65
2013-12-7,36.0,31.1,27.5,32.9,28.1,25.0,98,89,77,30.28,30.01,23,9,40,2.04
2013-12-8,41.4,35.7,32.2,39.8,34.3,30.1,99,95,88,30.37,30.25,12,4,22,0.02
2013-12-9,45.5,41.6,39.2,42.8,39.8,36.2,98,93,89,30.51,30.22,13,7,22,0.06
2013-12-10,47.8,42.8,38.5,45.7,42.1,37.7,99,97,89,30.70,30.50,4,1,9,0.00
2013-12-11,42.4,40.8,38.1,42.2,40.3,37.9,99,98,96,30.70,30.63,4,1,8,0.00
2013-12-12,38.1,35.2,32.5,37.9,34.9,31.9,99,99,99,30.65,30.49,3,1,7,0.00
2013-12-13,34.3,31.8,30.7,34.1,31.6,29.8,99,99,99,30.49,30.38,3,1,7,0.01
2013-12-14,36.0,32.5,30.2,34.1,31.9,30.0,99,98,92,30.52,30.36,4,1,11,0.00
2013-12-15,43.0,36.6,32.2,37.1,34.0,31.2,99,90,77,30.57,30.50,8,2,19,0.00
2013-12-16,40.6,32.3,24.8,34.2,29.9,24.6,99,91,75,30.58,30.53,4,1,9,0.00
2013-12-17,33.3,27.1,22.1,30.2,26.1,21.7,99,96,86,30.56,30.48,6,2,9,0.00
2013-12-18,30.0,26.4,21.7,27.7,25.4,21.5,99,96,91,30.49,30.25,5,2,11,0.00
2013-12-19,30.7,28.0,25.3,26.8,25.3,22.5,98,90,83,30.26,30.07,8,4,14,0.00
2013-12-20,32.7,29.8,25.5,30.5,28.3,25.3,99,94,90,30.57,30.19,6,2,11,0.01
2013-12-21,34.0,26.6,21.7,33.7,26.4,21.5,99,99,99,30.63,30.43,3,0,8,0.01
2013-12-22,40.5,32.2,23.5,40.2,31.9,23.3,99,99,99,30.43,30.18,5,1,12,0.00
2013-12-23,46.8,42.1,36.9,43.0,39.5,36.1,99,91,80,30.25,30.05,6,3,17,0.00
2013-12-24,40.3,34.6,30.6,37.2,33.7,30.3,99,97,88,30.05,29.71,9,5,18,0.00
2013-12-25,45.0,39.3,31.8,41.6,38.1,31.6,99,95,88,29.72,29.46,10,4,19,0.00
2013-12-26,50.4,39.7,31.6,43.7,37.8,31.4,99,93,80,29.68,29.40,8,3,17,0.00
2013-12-27,45.9,38.7,31.6,41.7,36.9,31.2,99,93,75,29.92,29.68,7,2,13,0.00
2013-12-28,40.6,32.7,26.6,39.3,32.3,26.4,99,98,95,29.90,29.82,6,1,11,0.00
2013-12-29,42.8,35.2,28.4,39.1,33.4,27.7,99,93,79,30.36,29.88,9,2,18,0.00
2013-12-30,39.0,29.7,23.9,35.1,28.3,23.5,99,95,76,30.51,30.35,3,1,8,0.00
2013-12-31,29.8,26.0,21.2,29.2,25.8,21.0,99,99,99,30.42,30.17,2,0,5,0.00
2014-1-1,34.0,31.1,29.3,33.6,30.8,29.1,99,99,97,30.17,30.03,3,1,7,0.00
2014-1-2,36.7,33.3,29.3,35.5,32.8,29.1,99,98,95,30.03,29.91,5,2,14,0.01